User: anonymous   Login
Location: ??
(31.9467°N, 34.8903°E)
Time: 00:33:16
(UTC+00:00)
Language:

ERS-2 - Orbit

View from above orbital plane
View from above orbital plane
View from above satellite
View from above satellite

Ground track
Ground track

The orbit data is extracted from the following two-line orbital elements,

1 23560U 95021A   21021.50305539  .00000789  00000-0  36729-4 0  9994
2 23560  98.5534 211.1614 0004134 135.9686 224.1877 15.23611060375313
Epoch (UTC): 21 January 2021 12:04:23
Eccentricity: 0.0004134
inclination: 98.5534°
perigee height: 492 km
apogee height: 498 km
right ascension of ascending node: 211.1614°
argument of perigee: 135.9686°
revolutions per day: 15.23611060
mean anomaly at epoch: 224.1877°
orbit number at epoch: 37531

The dashed part of the orbit path shows where the satellite is in the earth's shadow,  

DLR